"2016-06-15 00:00:00",1723611,6.1,330.7,5.087,0.485,23.47,109.1105,22.61,23.58,14.61,0,111.1,13.04,23.44,292.7
"2016-06-15 00:00:30",1723612,5.964,326.4,9.7,0.69,23.42,109.1154,22.62,23.59,14.59,0,111.1,13.04,23.45,288.4
"2016-06-15 00:01:00",1723613,2.73,353.1,11.68,1.563,23.41,109.1203,22.64,23.6,14.74,0,111.1,13.05,23.47,315.1
"2016-06-15 00:01:30",1723614,2.525,2.62,5.152,0.815,23.4,109.1259,22.65,23.6,14.91,0,111.1,13.05,23.48,324.6
"2016-06-15 00:02:00",1723615,4.594,351.3,10.96,1.599,23.45,109.1295,22.66,23.6,14.88,0,111.1,13.04,23.49,313.3
"2016-06-15 00:02:30",1723616,6.208,343,4.501,0.318,23.46,109.1305,22.66,23.6,15.04,0,111.1,13.04,23.49,305.0
"2016-06-15 00:03:00",1723617,6.994,341.7,3.262,0.78,23.49,109.1308,22.66,23.6,15.12,0,111.1,13.04,23.49,303.7
"2016-06-15 00:03:30",1723618,5.812,350.3,6.361,1.331,23.53,109.1323,22.67,23.61,15.22,0,111.1,13.04,23.50,312.3
"2016-06-15 00:04:00",1723619,5.311,345.6,3.587,0.711,23.44,109.1335,22.67,23.61,15.32,0,111.1,13.04,23.50,307.6
"2016-06-15 00:04:30",1723620,7.32,336,6.065,0.749,23.43,109.1369,22.68,23.62,15.37,0,111.1,13.04,23.51,298.0
"2016-06-15 00:05:00",1723621,8.29,322.1,2.633,0.938,23.38,109.1381,22.68,23.62,15.37,0,111.1,13.04,23.51,284.1
"2016-06-15 00:05:30",1723622,7.791,344.8,5.164,0.6,23.56,109.14,22.69,23.62,15.39,0,111.1,13.04,23.52,306.8
"2016-06-15 00:06:00",1723623,5.147,351.3,16.19,2.16,23.56,109.14,22.69,23.61,14.83,0,111.1,13.04,23.52,313.3
"2016-06-15 00:06:30",1723624,5.033,314.3,4.959,0.797,23.44,109.14,22.69,23.62,14.59,0,111.1,13.04,23.52,276.3
"2016-06-15 00:07:00",1723625,7.795,321.6,3.591,1.119,23.47,109.14,22.69,23.62,14.85,0,111.1,13.04,23.52,283.6
"2016-06-15 00:07:30",1723626,6.745,324.7,9.58,2.057,23.44,109.14,22.69,23.62,14.91,0,111,13.04,23.52,286.7
"2016-06-15 00:08:00",1723627,4.331,338,7.997,0.551,23.43,109.14,22.69,23.63,15,0,111,13.05,23.52,300.0
"2016-06-15 00:08:30",1723628,6.635,324.8,5.01,0.834,23.38,109.14,22.69,23.64,15.07,0,111,13.05,23.52,286.8
"2016-06-15 00:09:00",1723629,7.591,342.8,6.974,0.47,23.49,109.14,22.69,23.63,15.22,0,111.1,13.05,23.52,304.8
"2016-06-15 00:09:30",1723630,5.684,354.3,6.247,1.582,23.44,109.14,22.69,23.63,15.31,0,111,13.05,23.52,316.3
"2016-06-15 00:10:00",1723631,5.499,346.5,5.287,0.578,23.38,109.1397,22.68,23.64,15.44,0,111,13.05,23.52,308.5
"2016-06-15 00:10:30",1723632,5.138,346.6,9.11,1.331,23.42,109.1397,22.68,23.62,15.52,0,111,13.05,23.52,308.6
"2016-06-15 00:11:00",1723633,4.551,333.5,5.385,0.472,23.55,109.1374,22.68,23.63,15,0,111,13.05,23.51,295.5
"2016-06-15 00:11:30",1723634,2.542,353.3,17.38,1.083,23.44,109.1335,22.67,23.63,15.06,0,111,13.05,23.50,315.3
"2016-06-15 00:12:00",1723635,2.444,13.45,10.52,0.878,23.35,109.1318,22.66,23.64,15.41,0,111,13.05,23.50,335.5
"2016-06-15 00:12:30",1723636,3.046,12.59,11.2,0.667,23.37,109.131,22.66,23.61,15.31,0,111,13.05,23.49,334.6
"2016-06-15 00:13:00",1723637,2.5,349.5,19.49,0.676,23.34,109.1284,22.66,23.62,15.34,0,111,13.05,23.49,311.5
"2016-06-15 00:13:30",1723638,4.313,347.3,8.74,0.959,23.45,109.1301,22.66,23.64,15.49,0,111,13.05,23.49,309.3
"2016-06-15 00:14:00",1723639,2.793,353.2,10.63,1.04,23.41,109.1296,22.66,23.62,15.66,0,111,13.05,23.49,315.2
"2016-06-15 00:14:30",1723640,4.528,318.9,16.43,0.878,23.44,109.1307,22.66,23.62,15.43,0,111,13.05,23.49,280.9
"2016-06-15 00:15:00",1723641,5.952,324,19.83,2.675,23.31,109.129,22.66,23.62,15.52,0,111,13.05,23.49,286.0
"2016-06-15 00:15:30",1723642,6.462,340.2,12.67,1.563,23.35,109.1273,22.65,23.63,15.78,0,111,13.05,23.48,302.2
"2016-06-15 00:16:00",1723643,5.063,357.6,8.07,1.737,23.42,109.1301,22.66,23.64,15.8,0,111,13.05,23.49,319.6
"2016-06-15 00:16:30",1723644,7.829,331.9,6.829,0.537,23.3,109.1293,22.66,23.63,15.79,0,111,13.05,23.49,293.9
"2016-06-15 00:17:00",1723645,9.66,323.9,4.05,0.974,23.34,109.1285,22.66,23.64,15.8,0,111,13.05,23.49,285.9
"2016-06-15 00:17:30",1723646,9.19,346.9,9.88,1.595,23.57,109.1322,22.67,23.63,15.77,0,111,13.05,23.50,308.9
"2016-06-15 00:18:00",1723647,8.18,340.6,6.755,0.813,23.59,109.1317,22.66,23.64,15.68,0,111,13.05,23.50,302.6
"2016-06-15 00:18:30",1723648,7.177,337.2,6.063,0.27,23.54,109.1347,22.67,23.64,15.5,0,111,13.06,23.50,299.2
"2016-06-15 00:19:00",1723649,7.107,348.5,4.709,1.036,23.58,109.1382,22.68,23.64,15.64,0,111,13.06,23.51,310.5
"2016-06-15 00:19:30",1723650,7.225,332.8,15.36,1.294,23.51,109.1429,22.69,23.65,15.65,0,111,13.05,23.52,294.8
"2016-06-15 00:20:00",1723651,8.43,325.8,4.994,0.974,23.47,109.1515,22.72,23.64,15.57,0,111,13.05,23.55,287.8
"2016-06-15 00:20:30",1723652,8.41,323.5,4.238,0.437,23.58,109.1544,22.72,23.65,15.34,0,111,13.05,23.55,285.5
"2016-06-15 00:21:00",1723653,9.33,322.2,4.343,0.745,23.45,109.1578,22.73,23.65,15.52,0,111,13.05,23.56,284.2
"2016-06-15 00:21:30",1723654,7.938,316.9,5.634,1.078,23.28,109.1596,22.74,23.67,15.89,0,111,13.05,23.57,278.9
"2016-06-15 00:22:00",1723655,8.02,301.1,5.716,0.64,23.33,109.1614,22.74,23.67,15.92,0,111,13.05,23.57,263.1
"2016-06-15 00:22:30",1723656,6.764,317.7,8.26,1.146,23.4,109.1651,22.75,23.69,15.69,0,111,13.05,23.58,279.7
"2016-06-15 00:23:00",1723657,6.934,327.4,7.652,0.72,23.4,109.1657,22.75,23.7,15.85,0,111,13.05,23.58,289.4
"2016-06-15 00:23:30",1723658,5.6,324.7,6.319,1.031,23.31,109.1664,22.75,23.71,16.03,0,111,13.05,23.58,286.7
"2016-06-15 00:24:00",1723659,6.156,323.7,2.919,0.285,23.31,109.1673,22.76,23.7,16.13,0,111,13.05,23.59,285.7
"2016-06-15 00:24:30",1723660,4.999,334.7,6.129,0.844,23.41,109.1685,22.76,23.7,15.87,0,111,13.05,23.59,296.7
"2016-06-15 00:25:00",1723661,3.862,342.8,20.67,0.511,23.36,109.171,22.77,23.71,15.66,0,111,13.06,23.60,304.8
"2016-06-15 00:25:30",1723662,2.447,15.29,6.775,0.899,23.34,109.1713,22.77,23.71,15.62,0,111,13.06,23.60,337.3
"2016-06-15 00:26:00",1723663,3.822,3.998,8.17,0.569,23.35,109.1731,22.77,23.71,15.52,0,111,13.06,23.60,326.0
"2016-06-15 00:26:30",1723664,3.098,5.784,14.86,1.067,23.35,109.174,22.77,23.72,15.44,0,111,13.06,23.60,327.8
"2016-06-15 00:27:00",1723665,3.23,347.7,13.5,1.518,23.28,109.1768,22.78,23.72,15.55,0,111,13.06,23.61,309.7
"2016-06-15 00:27:30",1723666,1.133,5.456,18.45,0.688,23.26,109.1756,22.78,23.72,15.63,0,111,13.06,23.61,327.5
"2016-06-15 00:28:00",1723667,2.748,336.7,14.86,0.627,23.26,109.1749,22.78,23.71,15.57,0,111,13.06,23.61,298.7
"2016-06-15 00:28:30",1723668,4.398,329.9,5.947,0.526,23.23,109.1759,22.78,23.71,15.61,0,111,13.06,23.61,291.9
"2016-06-15 00:29:00",1723669,4.188,333.5,7.288,0.457,23.23,109.1762,22.78,23.72,15.85,0,111,13.06,23.61,295.5
"2016-06-15 00:29:30",1723670,1.861,0.752,20.93,1.031,23.22,109.1768,22.78,23.71,15.87,0,111,13.06,23.61,322.8
"2016-06-15 00:30:00",1723671,3.799,349.3,14.79,1.102,23.4,109.1768,22.78,23.72,15.69,0,111,13.06,23.61,311.3
"2016-06-15 00:30:30",1723672,3.53,344,9.38,0.703,23.29,109.1768,22.78,23.71,15.78,0,111,13.06,23.61,306.0
"2016-06-15 00:31:00",1723673,2.13,359.3,7.196,0.849,23.24,109.1768,22.78,23.71,15.83,0,111,13.06,23.61,321.3
"2016-06-15 00:31:30",1723674,1.573,5.311,8.35,0.345,23.19,109.1765,22.78,23.7,15.96,0,111,13.06,23.61,327.3
"2016-06-15 00:32:00",1723675,2.294,322.7,22.39,0.402,23.25,109.1751,22.78,23.7,16.02,0,111,13.06,23.61,284.7
"2016-06-15 00:32:30",1723676,3.196,336.5,21.38,1.296,23.32,109.17,22.76,23.7,15.95,0,111,13.06,23.59,298.5
"2016-06-15 00:33:00",1723677,5.035,302.3,18.21,0.707,23.3,109.1661,22.75,23.69,15.81,0,111,13.06,23.58,264.3
"2016-06-15 00:33:30",1723678,4.904,312.6,18.08,1.125,23.33,109.1655,22.75,23.71,15.83,0,111,13.06,23.58,274.6
"2016-06-15 00:34:00",1723679,4.056,314.1,2.207,0.154,23.07,109.1565,22.73,23.7,16.09,0,111,13.06,23.56,276.1
"2016-06-15 00:34:30",1723680,5.978,315.5,9.64,0.871,23.51,109.1442,22.7,23.68,15.85,0,111,13.06,23.53,277.5
"2016-06-15 00:35:00",1723681,8.92,306.9,10.33,1.211,23.56,109.1447,22.7,23.66,15.47,0,111,13.06,23.53,268.9
"2016-06-15 00:35:30",1723682,7.588,317,6.057,0.677,23.63,109.145,22.7,23.68,15.31,0,111,13.06,23.53,279.0
"2016-06-15 00:36:00",1723683,9.22,311.2,5.847,1.087,23.67,109.1492,22.71,23.68,15.17,0,111,13.06,23.54,273.2
"2016-06-15 00:36:30",1723684,9.88,317.6,4.49,0.446,23.7,109.1568,22.73,23.68,14.66,0,111,13.06,23.56,279.6
"2016-06-15 00:37:00",1723685,9.73,309.9,2.787,0.298,23.55,109.1655,22.75,23.69,14.77,0,111,13.06,23.58,271.9
"2016-06-15 00:37:30",1723686,8.48,315.3,3.311,0.523,23.44,109.1717,22.77,23.7,15.09,0,111,13.05,23.60,277.3
"2016-06-15 00:38:00",1723687,7.823,315.2,2.845,0.553,23.35,109.1768,22.78,23.71,15.23,0,111,13.05,23.61,277.2
"2016-06-15 00:38:30",1723688,10.08,310.2,4.303,1.086,23.28,109.1813,22.79,23.74,15.17,0,111,13.05,23.62,272.2
"2016-06-15 00:39:00",1723689,11.05,317.3,1.609,0.458,23.23,109.2038,22.85,23.75,14.49,0,111,13.05,23.68,279.3
"2016-06-15 00:39:30",1723690,10.94,318.1,2.335,0.338,23.22,109.2105,22.87,23.77,14.3,0,111,13.05,23.70,280.1
"2016-06-15 00:40:00",1723691,9.82,313.4,1.408,0.8,23.12,109.2145,22.88,23.8,14.31,0,111,13.05,23.71,275.4
"2016-06-15 00:40:30",1723692,9.27,313.6,1.698,0.379,23.11,109.2341,22.93,23.82,14.41,0,111,13.05,23.76,275.6
"2016-06-15 00:41:00",1723693,9.26,315.8,3.565,0.593,23.1,109.2443,22.95,23.85,14.76,0,111,13.05,23.79,277.8
"2016-06-15 00:41:30",1723694,8.56,319.2,5.514,1.246,23.09,109.267,23.01,23.88,14.91,0,111,13.05,23.84,281.2
"2016-06-15 00:42:00",1723695,8.21,313.5,4.09,0.53,22.99,109.278,23.04,23.91,15.02,0,111,13.05,23.87,275.5
"2016-06-15 00:42:30",1723696,7.677,316.2,4.406,0.694,22.96,109.2923,23.08,23.95,14.58,0,111,13.06,23.91,278.2
"2016-06-15 00:43:00",1723697,8.23,316,1.881,0.348,22.91,109.3115,23.13,23.96,14.43,0,111,13.06,23.96,278.0
"2016-06-15 00:43:30",1723698,10.06,319.9,5.634,0.919,23.07,109.3174,23.14,24.02,14.79,0,111,13.06,23.97,281.9
"2016-06-15 00:44:00",1723699,9.64,317.4,2.164,0.408,23.05,109.3429,23.21,24.05,15.03,0,111,13.06,24.04,279.4
"2016-06-15 00:44:30",1723700,9.84,316,2.484,0.276,23.02,109.3466,23.22,24.09,14.58,0,111.1,13.06,24.05,278.0
"2016-06-15 00:45:00",1723701,8.63,318.4,2.692,0.375,22.99,109.3733,23.28,24.12,14.43,0,111.1,13.06,24.12,280.4
"2016-06-15 00:45:30",1723702,8.98,317.7,3.475,0.859,22.99,109.3792,23.3,24.13,14.51,0,111.1,13.06,24.13,279.7
"2016-06-15 00:46:00",1723703,9.18,315.2,2.48,0.473,23.03,109.3865,23.32,24.18,14.58,0,111.1,13.05,24.15,277.2
"2016-06-15 00:46:30",1723704,8.31,313.9,2.101,0.761,23,109.4103,23.38,24.21,14.65,0,111.1,13.06,24.21,275.9
"2016-06-15 00:47:00",1723705,6.535,306.1,4.572,0.93,22.97,109.4111,23.38,24.24,15.14,0,111.1,13.06,24.22,268.1
"2016-06-15 00:47:30",1723706,6.816,305.9,3.083,0.487,22.92,109.4264,23.42,24.27,15.22,0,111.1,13.05,24.25,267.9
"2016-06-15 00:48:00",1723707,7.953,307.2,4.047,0.911,22.93,109.4409,23.46,24.3,15.17,0,111.1,13.05,24.29,269.2
"2016-06-15 00:48:30",1723708,7.939,306.1,6.408,0.74,22.94,109.4393,23.45,24.32,15.19,0,111.1,13.05,24.29,268.1
"2016-06-15 00:49:00",1723709,7.091,303.1,7.665,0.453,22.92,109.4437,23.47,24.35,15.27,0,111.1,13.05,24.30,265.1
"2016-06-15 00:49:30",1723710,7.233,309.1,3.814,0.602,22.88,109.4658,23.52,24.37,15.23,0,111.1,13.05,24.36,271.1
"2016-06-15 00:50:00",1723711,7.391,311.2,4.488,0.412,22.91,109.4669,23.53,24.4,14.51,0,111.1,13.05,24.36,273.2
"2016-06-15 00:50:30",1723712,7.433,301.9,5.029,0.225,22.91,109.461,23.51,24.43,14.44,0,111.1,13.05,24.34,263.9
"2016-06-15 00:51:00",1723713,6.519,310.3,1.964,0.295,22.85,109.4658,23.52,24.44,14.9,0,111.1,13.05,24.36,272.3
"2016-06-15 00:51:30",1723714,6.193,314.1,6.106,0.553,22.88,109.4828,23.57,24.47,14.81,0,111.1,13.05,24.40,276.1
"2016-06-15 00:52:00",1723715,6.935,315.1,2.869,0.929,22.82,109.4855,23.57,24.48,14.8,0,111.1,13.05,24.41,277.1
"2016-06-15 00:52:30",1723716,6.177,320.9,4.23,0.418,22.89,109.4797,23.56,24.49,14.82,0,111.1,13.05,24.39,282.9
"2016-06-15 00:53:00",1723717,6.793,311,3.048,0.456,22.84,109.4788,23.56,24.53,15.14,0,111.1,13.05,24.39,273.0
"2016-06-15 00:53:30",1723718,7.266,318.7,5.408,0.53,22.95,109.4814,23.56,24.54,15.05,0,111.1,13.05,24.40,280.7
"2016-06-15 00:54:00",1723719,6.948,305.6,9.65,0.826,22.95,109.4964,23.6,24.57,14.63,0,111.1,13.05,24.44,267.6
"2016-06-15 00:54:30",1723720,9.55,316.2,6.32,0.489,23.02,109.5076,23.63,24.56,14.76,0,111.1,13.05,24.46,278.2
"2016-06-15 00:55:00",1723721,8.99,304.9,7.713,1,23.01,109.511,23.64,24.59,14.93,0,111.1,13.05,24.47,266.9
"2016-06-15 00:55:30",1723722,7.802,310.8,7.941,0.563,23.01,109.5093,23.63,24.57,15.24,0,111.1,13.04,24.47,272.8
"2016-06-15 00:56:00",1723723,8.84,304.8,6.419,0.906,23.07,109.5096,23.63,24.58,14.86,0,111.1,13.04,24.47,266.8
"2016-06-15 00:56:30",1723724,10.16,314.5,2.286,0.509,23.14,109.511,23.64,24.59,14.69,0,111.1,13.04,24.47,276.5
"2016-06-15 00:57:00",1723725,8.91,305.2,6.517,0.475,23.07,109.511,23.64,24.6,14.86,0,111.1,13.04,24.47,267.2
"2016-06-15 00:57:30",1723726,9.52,301.7,7.281,0.646,23.12,109.511,23.64,24.6,14.62,0,111.1,13.04,24.47,263.7
"2016-06-15 00:58:00",1723727,10.34,312.2,3.415,0.578,23.15,109.511,23.64,24.6,14.51,0,111.1,13.04,24.47,274.2
"2016-06-15 00:58:30",1723728,9.18,311.2,3.146,1.281,23.09,109.511,23.64,24.63,14.8,0,111.1,13.04,24.47,273.2
"2016-06-15 00:59:00",1723729,11.61,310.2,2.981,0.414,23.21,109.511,23.64,24.62,14.39,0,111.1,13.04,24.47,272.2
"2016-06-15 00:59:30",1723730,11.2,306.2,2.308,0.534,23.22,109.511,23.64,24.63,14.18,0,111.1,13.04,24.47,268.2
"2016-06-15 01:00:00",1723731,10.46,310.6,1.332,0.324,23.21,109.511,23.64,24.63,14.21,0,111.1,13.05,24.47,272.6
"2016-06-15 01:00:30",1723732,10.37,312.1,1.071,0.284,23.19,109.511,23.64,24.64,14.18,0,111.1,13.05,24.47,274.1
"2016-06-15 01:01:00",1723733,10.34,312.1,1.721,0.527,23.19,109.511,23.64,24.63,14.24,0,111.1,13.05,24.47,274.1
"2016-06-15 01:01:30",1723734,10.68,315.3,1.704,0.328,23.23,109.511,23.64,24.63,14.23,0,111.1,13.05,24.47,277.3
"2016-06-15 01:02:00",1723735,10.37,315.2,2.906,0.81,23.19,109.511,23.64,24.63,14.15,0,111.2,13.05,24.47,277.2
"2016-06-15 01:02:30",1723736,8.52,305.8,2.015,0.288,23.07,109.511,23.64,24.63,14.51,0,111.2,13.05,24.47,267.8
"2016-06-15 01:03:00",1723737,8.49,308.7,4.238,0.441,23.1,109.511,23.64,24.63,14.67,0,111.2,13.05,24.47,270.7
"2016-06-15 01:03:30",1723738,8.76,318,3.646,0.516,23.16,109.511,23.64,24.64,14.5,0,111.2,13.05,24.47,280.0
"2016-06-15 01:04:00",1723739,9.31,314.7,2.767,0.394,23.1,109.511,23.64,24.63,14.53,0,111.2,13.05,24.47,276.7
"2016-06-15 01:04:30",1723740,9.7,313.7,4.08,0.512,23.08,109.511,23.64,24.63,14.66,0,111.2,13.05,24.47,275.7
"2016-06-15 01:05:00",1723741,8.3,309,3.898,0.431,23.03,109.511,23.64,24.62,14.99,0,111.2,13.05,24.47,271.0
"2016-06-15 01:05:30",1723742,7.985,317.3,6.339,0.527,23.05,109.511,23.64,24.61,15.03,0,111.2,13.05,24.47,279.3
"2016-06-15 01:06:00",1723743,7.047,312.2,5.136,0.481,22.96,109.511,23.64,24.61,15.25,0,111.2,13.05,24.47,274.2
"2016-06-15 01:06:30",1723744,6.922,307.4,4.275,0.418,22.94,109.511,23.64,24.61,15.19,0,111.2,13.05,24.47,269.4
"2016-06-15 01:07:00",1723745,7.1,311.9,4.53,0.331,22.92,109.509,23.63,24.62,15.31,0,111.2,13.05,24.47,273.9
"2016-06-15 01:07:30",1723746,8.05,312.7,3.46,0.663,22.97,109.5087,23.63,24.62,15.12,0,111.1,13.05,24.47,274.7
"2016-06-15 01:08:00",1723747,9.69,304.2,5.372,0.676,23.06,109.5037,23.62,24.6,15,0,111.2,13.05,24.45,266.2
"2016-06-15 01:08:30",1723748,9.08,306.2,3.513,0.76,23.04,109.5,23.61,24.59,14.95,0,111.2,13.05,24.44,268.2
"2016-06-15 01:09:00",1723749,9.52,301.1,3.78,0.429,23.08,109.4857,23.57,24.59,15.12,0,111.2,13.05,24.41,263.1
"2016-06-15 01:09:30",1723750,9.69,303.5,1.742,0.446,23.17,109.4795,23.56,24.58,14.72,0,111.2,13.05,24.39,265.5
"2016-06-15 01:10:00",1723751,9.64,303.9,1.678,0.435,23.09,109.4778,23.55,24.57,14.89,0,111.2,13.05,24.39,265.9
"2016-06-15 01:10:30",1723752,9.61,306.7,2.321,0.318,23.1,109.4772,23.55,24.56,14.73,0,111.2,13.05,24.39,268.7
"2016-06-15 01:11:00",1723753,9.85,308,1.456,0.411,23.16,109.4772,23.55,24.56,14.53,0,111.2,13.05,24.39,270.0
"2016-06-15 01:11:30",1723754,9.58,308.1,2.253,0.595,23.1,109.4772,23.55,24.57,14.85,0,111.2,13.04,24.39,270.1
"2016-06-15 01:12:00",1723755,8.87,310,1.844,0.447,23.08,109.4772,23.55,24.55,14.86,0,111.2,13.04,24.39,272.0
"2016-06-15 01:12:30",1723756,8.18,310.7,1.861,0.406,23.04,109.4769,23.55,24.56,15.14,0,111.2,13.04,24.38,272.7
"2016-06-15 01:13:00",1723757,8.76,310.4,2.537,0.337,23.07,109.4772,23.55,24.55,15.16,0,111.2,13.03,24.39,272.4
"2016-06-15 01:13:30",1723758,8.48,307.7,1.643,0.55,23.07,109.4769,23.55,24.56,15.11,0,111.2,13.03,24.38,269.7
"2016-06-15 01:14:00",1723759,9.79,308.8,3.661,0.271,23.17,109.4763,23.55,24.55,14.9,0,111.2,13.03,24.38,270.8
"2016-06-15 01:14:30",1723760,10.28,308.9,1.574,0.295,23.22,109.4763,23.55,24.53,14.88,0,111.2,13.03,24.38,270.9
"2016-06-15 01:15:00",1723761,9.54,306.1,1.43,0.381,23.19,109.4766,23.55,24.53,14.98,0,111.2,13.03,24.38,268.1
"2016-06-15 01:15:30",1723762,9.32,306.2,2.08,0.211,23.17,109.4763,23.55,24.53,15.04,0,111.2,13.03,24.38,268.2
"2016-06-15 01:16:00",1723763,9.76,302.5,1.506,0.417,23.23,109.476,23.55,24.52,14.7,0,111.2,13.03,24.38,264.5
"2016-06-15 01:16:30",1723764,9.76,307.7,1.725,0.47,23.23,109.4748,23.55,24.5,14.79,0,111.2,13.03,24.38,269.7
"2016-06-15 01:17:00",1723765,8.88,305.6,2.562,0.164,23.19,109.4763,23.55,24.51,14.91,0,111.2,13.04,24.38,267.6
"2016-06-15 01:17:30",1723766,8.83,307.4,2.667,0.436,23.15,109.4745,23.54,24.5,15.13,0,111.2,13.04,24.38,269.4
"2016-06-15 01:18:00",1723767,10.22,308.3,2.191,0.856,23.18,109.4712,23.54,24.5,15.34,0,111.1,13.04,24.37,270.3
"2016-06-15 01:18:30",1723768,10.26,310,2.882,0.349,23.26,109.471,23.54,24.51,15.11,0,111.1,13.04,24.37,272.0
"2016-06-15 01:19:00",1723769,10.04,313.7,0.895,0.152,23.28,109.4679,23.53,24.5,14.8,0,111.2,13.04,24.36,275.7
"2016-06-15 01:19:30",1723770,9.65,311.2,1.921,0.362,23.23,109.4629,23.51,24.49,15.13,0,111.1,13.04,24.35,273.2
"2016-06-15 01:20:00",1723771,9.97,311.5,2.005,0.468,23.22,109.4589,23.5,24.49,15.05,0,111.2,13.04,24.34,273.5
"2016-06-15 01:20:30",1723772,9.98,312.9,0.983,0.53,23.23,109.455,23.49,24.47,14.72,0,111.1,13.04,24.33,274.9
"2016-06-15 01:21:00",1723773,10.19,312.8,0.944,0.152,23.25,109.4533,23.49,24.49,14.4,0,111.1,13.04,24.32,274.8
"2016-06-15 01:21:30",1723774,10.26,309.8,3.637,0.265,23.28,109.448,23.48,24.49,14.48,0,111.2,13.04,24.31,271.8
"2016-06-15 01:22:00",1723775,10.17,305.9,2.368,0.423,23.32,109.4453,23.47,24.47,14.65,0,111.2,13.04,24.30,267.9
"2016-06-15 01:22:30",1723776,9.9,305.3,4.188,0.45,23.27,109.443,23.46,24.47,14.86,0,111.1,13.04,24.30,267.3
"2016-06-15 01:23:00",1723777,9.97,307.8,3.33,0.489,23.25,109.4443,23.47,24.48,14.95,0,111.2,13.04,24.30,269.8
"2016-06-15 01:23:30",1723778,9.78,301.6,2.481,0.68,23.25,109.4422,23.46,24.47,15.02,0,111.1,13.04,24.30,263.6
"2016-06-15 01:24:00",1723779,10.11,306.4,5.624,0.535,23.23,109.441,23.46,24.47,15.1,0,111.1,13.04,24.29,268.4
"2016-06-15 01:24:30",1723780,9.75,313.2,2.033,0.428,23.25,109.4426,23.46,24.45,15.01,0,111.2,13.04,24.30,275.2
"2016-06-15 01:25:00",1723781,9.59,310.4,2.423,0.331,23.23,109.4429,23.46,24.45,15.02,0,111.1,13.04,24.30,272.4
"2016-06-15 01:25:30",1723782,9.23,309.3,1.917,0.322,23.19,109.4435,23.46,24.45,15.42,0,111.1,13.04,24.30,271.3
"2016-06-15 01:26:00",1723783,9.42,311.6,2.145,0.359,23.24,109.4417,23.46,24.43,15.33,0,111.1,13.04,24.29,273.6
"2016-06-15 01:26:30",1723784,9.84,308.2,2.114,0.458,23.31,109.442,23.46,24.44,15.13,0,111.1,13.04,24.29,270.2
"2016-06-15 01:27:00",1723785,10.27,311.1,3.357,0.36,23.47,109.4423,23.46,24.44,14.96,0,111.1,13.04,24.30,273.1
"2016-06-15 01:27:30",1723786,10.1,310.7,2.429,0.285,23.57,109.4432,23.46,24.42,14.76,0,111.1,13.04,24.30,272.7
"2016-06-15 01:28:00",1723787,9.91,311.4,1.78,0.203,23.55,109.4421,23.46,24.44,14.84,0,111.2,13.04,24.30,273.4
"2016-06-15 01:28:30",1723788,9.55,308,0.965,0.215,23.64,109.4305,23.43,24.41,14.82,0,111.1,13.04,24.27,270.0
"2016-06-15 01:29:00",1723789,9.51,310.5,1.02,0.176,23.65,109.4156,23.39,24.41,14.63,0,111.1,13.04,24.23,272.5
"2016-06-15 01:29:30",1723790,8.73,312.3,1.429,0.375,23.63,109.4088,23.38,24.39,14.86,0,111.1,13.04,24.21,274.3
"2016-06-15 01:30:00",1723791,9.09,313.8,2.876,0.402,23.69,109.4098,23.38,24.38,14.96,0,111.1,13.04,24.21,275.8
"2016-06-15 01:30:30",1723792,9.42,311.8,1.575,0.346,23.65,109.4098,23.38,24.37,15.03,0,111.1,13.03,24.21,273.8
"2016-06-15 01:31:00",1723793,9.5,310.4,2.256,0.361,23.7,109.4053,23.37,24.36,15.05,0,111.1,13.03,24.20,272.4
"2016-06-15 01:31:30",1723794,9.28,309.1,1.57,0.278,23.68,109.3969,23.35,24.35,15.06,0,111.1,13.03,24.18,271.1
"2016-06-15 01:32:00",1723795,9.57,310.9,2.03,0.301,23.62,109.3766,23.29,24.33,15.07,0,111.1,13.04,24.13,272.9
"2016-06-15 01:32:30",1723796,9.61,311.5,1.91,0.235,23.51,109.3761,23.29,24.31,15.19,0,111.1,13.04,24.13,273.5
"2016-06-15 01:33:00",1723797,9.53,311.1,1.508,0.256,23.49,109.3761,23.29,24.3,15.17,0,111.1,13.04,24.13,273.1
"2016-06-15 01:33:30",1723798,10.59,312.5,1.281,0.261,23.44,109.3761,23.29,24.29,15.14,0,111.1,13.04,24.13,274.5
"2016-06-15 01:34:00",1723799,9.79,312.7,2.418,0.306,23.43,109.3693,23.27,24.28,15.16,0,111.1,13.04,24.11,274.7
"2016-06-15 01:34:30",1723800,10.18,308.8,1.011,0.422,23.38,109.3578,23.24,24.26,15.22,0,111.1,13.04,24.08,270.8
"2016-06-15 01:35:00",1723801,10.44,309.3,0.832,0.233,23.35,109.3493,23.22,24.26,15.25,0,111.1,13.04,24.06,271.3
"2016-06-15 01:35:30",1723802,10.47,311.8,1.463,0.39,23.34,109.3429,23.21,24.24,15.38,0,111.1,13.04,24.04,273.8
"2016-06-15 01:36:00",1723803,10.06,309.7,1.618,0.303,23.33,109.3423,23.21,24.24,15.35,0,111.1,13.04,24.04,271.7
"2016-06-15 01:36:30",1723804,10.63,311.2,2.264,0.234,23.33,109.3423,23.21,24.23,15.31,0,111.1,13.04,24.04,273.2
"2016-06-15 01:37:00",1723805,10.67,313.2,1.456,0.456,23.41,109.3423,23.21,24.23,15.37,0,111.1,13.04,24.04,275.2
"2016-06-15 01:37:30",1723806,10.29,314.8,1.596,0.3,23.44,109.3423,23.21,24.23,15.25,0,111.1,13.05,24.04,276.8
"2016-06-15 01:38:00",1723807,10.38,312.2,0.569,0.216,23.38,109.3423,23.21,24.22,15.28,0,111.1,13.05,24.04,274.2
"2016-06-15 01:38:30",1723808,10.05,312,0.985,0.285,23.35,109.3423,23.21,24.22,15.35,0,111.1,13.05,24.04,274.0
"2016-06-15 01:39:00",1723809,9.96,312.3,1.778,0.117,23.34,109.3423,23.21,24.21,15.36,0,111.1,13.05,24.04,274.3
"2016-06-15 01:39:30",1723810,9.84,311.5,0.878,0.187,23.33,109.3423,23.21,24.22,15.41,0,111.1,13.05,24.04,273.5
"2016-06-15 01:40:00",1723811,9.68,315.8,2.489,0.219,23.3,109.3423,23.21,24.22,15.44,0,111.1,13.05,24.04,277.8
"2016-06-15 01:40:30",1723812,9.91,311.4,0.94,0.275,23.31,109.3423,23.21,24.22,15.45,0,111.1,13.05,24.04,273.4
"2016-06-15 01:41:00",1723813,10.29,312.2,0.937,0.36,23.34,109.3426,23.21,24.21,15.53,0,111.1,13.05,24.04,274.2
"2016-06-15 01:41:30",1723814,10.94,313,1.91,0.248,23.38,109.3423,23.21,24.21,15.53,0,111.1,13.05,24.04,275.0
"2016-06-15 01:42:00",1723815,10.98,310,2.028,0.233,23.41,109.3423,23.21,24.21,15.63,0,111.1,13.05,24.04,272.0
"2016-06-15 01:42:30",1723816,10.22,312.4,1.351,0.41,23.34,109.3429,23.21,24.21,15.71,0,111.1,13.05,24.04,274.4
"2016-06-15 01:43:00",1723817,10.44,311.9,1.306,0.193,23.4,109.3426,23.21,24.21,15.49,0,111.1,13.05,24.04,273.9
"2016-06-15 01:43:30",1723818,10.62,312.3,1.665,0.291,23.38,109.3426,23.21,24.2,15.46,0,111.1,13.05,24.04,274.3
"2016-06-15 01:44:00",1723819,10.45,313.6,1.865,0.296,23.44,109.3429,23.21,24.21,15.49,0,111.1,13.05,24.04,275.6
"2016-06-15 01:44:30",1723820,10.59,312.9,1.335,0.206,23.44,109.344,23.21,24.22,15.46,0,111.1,13.05,24.04,274.9
"2016-06-15 01:45:00",1723821,10.2,311.2,1.55,0.262,23.44,109.3435,23.21,24.21,15.5,0,111.1,13.05,24.04,273.2
"2016-06-15 01:45:30",1723822,10.27,315.1,2.054,0.324,23.31,109.3423,23.21,24.21,15.63,0,111.1,13.05,24.04,277.1
"2016-06-15 01:46:00",1723823,10.71,309.7,0.905,0.293,23.43,109.3429,23.21,24.21,15.59,0,111.1,13.05,24.04,271.7
"2016-06-15 01:46:30",1723824,10.32,309.4,0.838,0.215,23.48,109.3429,23.21,24.2,15.48,0,111.1,13.04,24.04,271.4
"2016-06-15 01:47:00",1723825,10.63,311.1,1.3,0.292,23.43,109.3426,23.21,24.21,15.54,0,111.1,13.04,24.04,273.1
"2016-06-15 01:47:30",1723826,10.96,309.3,1.025,0.271,23.47,109.3429,23.21,24.21,15.58,0,111.1,13.04,24.04,271.3